Regional Weather Roundup
Issued by NWS

Home | Current Version | Previous Version | Text Only | Print | Product List | Glossary On
Versions: 1 2 3 4 5 6 7 8 9 10 11 12 13 14 15 16 17 18 19 20 21 22 23 24 25 26 27 28 29 30 31 32 33 34 35 36 37 38 39 40 41 42 43 44 45 46 47 48 49 50
000
ASUS42 KFFC 290603
RWRGA
WEATHER ROUNDUP FOR GEORGIA
NATIONAL WEATHER SERVICE PEACHTREE CITY GA
100 AM EST SAT NOV 29 2014

NOTE: "FAIR" INDICATES FEW OR NO CLOUDS BELOW 12,000 FEET WITH NO
SIGNIFICANT WEATHER AND/OR OBSTRUCTIONS TO VISIBILITY.

* = USE WITH CAUTION. THE STATIONS MARKED WITH AN ASTERISK MAY NOT
REPORT WEATHER SUCH AS PRECIPITATION, FOG, OR THUNDER AND ARE NOT
QUALITY CONTROLLED BY NWS.

THE REMARK "TC" DENOTES TEMPERATURE READING IN DEGREES CELSIUS.

GAZ001>058-290700-
NORTH GEORGIA

CITY           SKY/WX    TMP DP  RH WIND       PRES   REMARKS
ATLANTA        PTCLDY    37  22  54 CALM      30.25F
6HR MIN TEMP:  35; 6HR MAX TEMP:  44;

ATHENS         CLEAR     30  25  81 CALM      30.27F
6HR MIN TEMP:  30; 6HR MAX TEMP:  38;

CHAMBLEE       CLEAR     29  24  82 CALM      30.25F
6HR MIN TEMP:  29; 6HR MAX TEMP:  38;

PEACHTREE CITY CLEAR     28  25  88 CALM      30.27F
6HR MIN TEMP:  28; 6HR MAX TEMP:  36;

ROME           CLEAR     27  24  89 CALM      30.26S
6HR MIN TEMP:  27; 6HR MAX TEMP:  37;

WEST ATLANTA   CLEAR     29  24  82 CALM      30.26F
6HR MIN TEMP:  29; 6HR MAX TEMP:  40;

GAINESVILLE    CLEAR     35  27  72 CALM      30.26S
6HR MIN TEMP:  34; 6HR MAX TEMP:  40;

CARTERSVILLE   CLEAR     26  22  84 CALM      30.27S
6HR MIN TEMP:  26; 6HR MAX TEMP:  32;



CITY           SKY/WX    TMP DP  RH WIND       PRES   REMARKS
DALTON*        CLEAR     30  27  86 CALM      30.25F
$$

GAZ059>098-102>109-290700-
CENTRAL GEORGIA

CITY           SKY/WX    TMP DP  RH WIND       PRES   REMARKS
AUGUSTA-BUSH   CLEAR     28  26  92 CALM      30.31S
6HR MIN TEMP:  27; 6HR MAX TEMP:  35;

AUGUSTA-DANIEL CLEAR     37  30  75 CALM      30.30F
6HR MIN TEMP:  37; 6HR MAX TEMP:  45;

COLUMBUS       CLEAR     34  28  79 CALM      30.29F
6HR MIN TEMP:  34; 6HR MAX TEMP:  45;

MACON          CLEAR     30  30 100 CALM      30.30F
6HR MIN TEMP:  29; 6HR MAX TEMP:  38;

ROBINS AFB     CLEAR     33  32  93 S2        30.29F


CITY           SKY/WX    TMP DP  RH WIND       PRES   REMARKS
LAGRANGE*      CLEAR     32  30  92 CALM      30.27F
SYLVANIA*      CLEAR     33  33  98 CALM      30.32F
MILLEDGEVILLE* CLEAR     32  32 100 CALM      30.30S
$$

GAZ099>101-110>166-290700-
SOUTH GEORGIA

CITY           SKY/WX    TMP DP  RH WIND       PRES   REMARKS
SAVANNAH       CLEAR     37  32  82 CALM      30.33F
6HR MIN TEMP:  35; 6HR MAX TEMP:  44;

VALDOSTA       CLEAR     33  50 100 CALM      30.31F HAZE
6HR MIN TEMP:  33; 6HR MAX TEMP:  40;

ALMA           PTCLDY    32  30  92 CALM      30.32S FOG
6HR MIN TEMP:  32; 6HR MAX TEMP:  39;

ST SIMONS      CLEAR     37  34  89 CALM      30.32F
6HR MIN TEMP:  37; 6HR MAX TEMP:  42;

FT STEWART     CLEAR     32  30  93 CALM      30.31F
ALBANY         CLEAR     33  30  88 CALM      30.33S
HUNTER AFB     CLEAR     34  32  94 CALM      30.31S
MOODY AFB      CLEAR     35  32  88 SE2       30.30F
BRUNSWICK      CLEAR     34  34 100 CALM      30.33F


CITY           SKY/WX    TMP DP  RH WIND       PRES   REMARKS
BAINBRIDGE*    CLEAR     37  36  93 CALM      30.30F
MOULTRIE*      CLEAR     36  36 100 CALM      30.31S
VIDALIA*       CLEAR     36  34  93 CALM      30.31F
WAYCROSS*      CLEAR     37  36  95 CALM      30.33S
DOUGLAS*       CLEAR     36  36 100 CALM      30.33S
$$



USA.gov is the U.S. government's official web portal to all federal, state and local government web resources and services.